Torna al catalogo

SHINSEI

MS-F2

AttivoScienzaLEO
NORAD 5485·PAYLOAD·🇯🇵 Japan

Lanciato Sep 28, 1971 da Uchinoura Space Center

Loading…

Prossimi Passaggi (prossime 24 ore)

TLE

AggiornatoSource: Space-Track

Epoca: Sep 14, 2026, 13:56 UTC

1 05485U 71080A   26257.58059627  .00000040  00000-0  17661-4 0  9991
2 05485  32.0579  76.3167 0640163 270.1535  82.5756 12.74258394560664

Traccia SHINSEI in tempo reale con AllMySat

Download on the App Store